AAA2354 YSSY-YLHI

Flight info

Callsign AAA2354
Flight time 2h 1m
Altitude 19000
Route NOBAR B450 LHI
Aircraft F27/M-SDFHY/C

Departure

Time 2026-05-06 08:04
Airport Sydney Kingsford Smith International Airport (YSSY)

Arrival

Time 2026-05-06 10:05
Airport Lord Howe Island Airport (YLHI)
Time Latitude Longitude Altitude Speed Heading
2026-05-06 07:33 -33.93329 151.17740 27 ft 0 kts 47°
2026-05-06 07:40 -33.93330 151.17740 27 ft 0 kts 47°
2026-05-06 07:55 -33.93330 151.17755 26 ft 5 kts 165°
2026-05-06 07:56 -33.93346 151.17711 26 ft 16 kts 248°
2026-05-06 07:56 -33.93358 151.17605 26 ft 9 kts 238°
2026-05-06 07:56 -33.93395 151.17595 26 ft 8 kts 175°
2026-05-06 07:56 -33.93468 151.17584 30 ft 11 kts 180°
2026-05-06 07:57 -33.93518 151.17597 27 ft 4 kts 163°
2026-05-06 07:57 -33.93573 151.17610 26 ft 12 kts 174°
2026-05-06 07:57 -33.93645 151.17608 30 ft 19 kts 180°
2026-05-06 07:57 -33.93756 151.17680 28 ft 28 kts 139°
2026-05-06 07:58 -33.93879 151.17763 26 ft 14 kts 158°
2026-05-06 07:58 -33.93954 151.17792 25 ft 13 kts 164°
2026-05-06 07:58 -33.94060 151.17821 27 ft 18 kts 167°
2026-05-06 07:58 -33.94193 151.17855 28 ft 20 kts 166°
2026-05-06 07:59 -33.94292 151.17880 26 ft 10 kts 168°
2026-05-06 07:59 -33.94360 151.17899 26 ft 10 kts 166°
2026-05-06 07:59 -33.94440 151.17911 26 ft 15 kts 192°
2026-05-06 07:59 -33.94553 151.17889 26 ft 19 kts 167°
2026-05-06 08:00 -33.94689 151.17918 26 ft 21 kts 166°
2026-05-06 08:00 -33.94842 151.17964 26 ft 25 kts 167°
2026-05-06 08:00 -33.95023 151.18013 27 ft 26 kts 166°
2026-05-06 08:00 -33.95097 151.18109 27 ft 9 kts 96°
2026-05-06 08:01 -33.95088 151.18171 27 ft 8 kts 76°
2026-05-06 08:01 -33.95061 151.18315 27 ft 46 kts 77°
2026-05-06 08:01 -33.95014 151.18579 26 ft 20 kts 78°
2026-05-06 08:01 -33.94996 151.18682 26 ft 9 kts 78°
2026-05-06 08:02 -33.94979 151.18786 22 ft 13 kts 86°
2026-05-06 08:02 -33.94995 151.18833 23 ft 0 kts 147°
2026-05-06 08:02 -33.95018 151.18842 21 ft 0 kts 168°
2026-05-06 08:03 -33.95021 151.18843 23 ft 3 kts 168°
2026-05-06 08:03 -33.95304 151.18917 19 ft 86 kts 166°
2026-05-06 08:03 -33.96078 151.19100 66 ft 131 kts 171°
2026-05-06 08:04 -33.96984 151.19194 482 ft 132 kts 172°
2026-05-06 08:04 -33.97918 151.19304 887 ft 142 kts 171°
2026-05-06 08:04 -33.98888 151.19546 1292 ft 150 kts 156°
2026-05-06 08:04 -33.99717 151.20295 1751 ft 149 kts 128°
2026-05-06 08:05 -34.00386 151.21267 2181 ft 154 kts 124°
2026-05-06 08:05 -34.00764 151.22469 2581 ft 156 kts 89°
2026-05-06 08:05 -34.00727 151.23728 3029 ft 156 kts 90°
2026-05-06 08:05 -34.01057 151.24977 3475 ft 161 kts 124°
2026-05-06 08:06 -34.01915 151.25830 3927 ft 160 kts 152°
2026-05-06 08:06 -34.02858 151.26547 4432 ft 160 kts 145°
2026-05-06 08:06 -34.03715 151.27415 4919 ft 161 kts 142°
2026-05-06 08:06 -34.04583 151.28271 5414 ft 161 kts 145°
2026-05-06 08:07 -34.05471 151.29111 5915 ft 163 kts 144°
2026-05-06 08:07 -34.06347 151.29980 6420 ft 164 kts 143°
2026-05-06 08:07 -34.07235 151.30844 6903 ft 165 kts 144°
2026-05-06 08:07 -34.08134 151.31719 7377 ft 167 kts 143°
2026-05-06 08:08 -34.09035 151.32610 7861 ft 169 kts 143°
2026-05-06 08:08 -34.09934 151.33483 8347 ft 170 kts 144°
2026-05-06 08:08 -34.10858 151.34388 8837 ft 172 kts 143°
2026-05-06 08:08 -34.11792 151.35312 9366 ft 174 kts 143°
2026-05-06 08:09 -34.12653 151.36349 9863 ft 178 kts 123°
2026-05-06 08:09 -34.13003 151.37779 10306 ft 180 kts 87°
2026-05-06 08:09 -34.12633 151.39192 10766 ft 176 kts 50°
2026-05-06 08:09 -34.11712 151.40097 11246 ft 169 kts 21°
2026-05-06 08:10 -34.10727 151.40896 11738 ft 176 kts 40°
2026-05-06 08:10 -34.09970 151.42052 12243 ft 178 kts 47°
2026-05-06 08:10 -34.09162 151.43186 12768 ft 178 kts 40°
2026-05-06 08:10 -34.08294 151.44257 13293 ft 180 kts 40°
2026-05-06 08:11 -34.07475 151.45361 13815 ft 181 kts 42°
2026-05-06 08:11 -34.06634 151.46488 14280 ft 180 kts 40°
2026-05-06 08:11 -34.05631 151.47322 14674 ft 172 kts 11°
2026-05-06 08:11 -34.04482 151.47573 15111 ft 166 kts
2026-05-06 08:12 -34.03341 151.47883 15541 ft 170 kts
2026-05-06 08:12 -34.02208 151.48313 15976 ft 170 kts
2026-05-06 08:12 -34.01063 151.48672 16410 ft 170 kts
2026-05-06 08:12 -33.99911 151.49039 16841 ft 172 kts
2026-05-06 08:13 -33.98759 151.49429 17275 ft 172 kts
2026-05-06 08:13 -33.97599 151.49799 17704 ft 173 kts
2026-05-06 08:13 -33.96432 151.50183 18137 ft 174 kts
2026-05-06 08:13 -33.95275 151.50566 18531 ft 175 kts
2026-05-06 08:14 -33.94096 151.50945 18904 ft 175 kts
2026-05-06 08:14 -33.92919 151.51335 19279 ft 175 kts
2026-05-06 08:14 -33.91742 151.51719 19650 ft 175 kts
2026-05-06 08:14 -33.90560 151.52103 20026 ft 176 kts
2026-05-06 08:15 -33.89402 151.52623 20375 ft 184 kts 25°
2026-05-06 08:15 -33.88501 151.53776 20695 ft 198 kts 58°
2026-05-06 08:15 -33.88014 151.55333 21069 ft 198 kts 64°
2026-05-06 08:15 -33.87378 151.56753 21435 ft 194 kts 49°
2026-05-06 08:16 -33.86602 151.58072 21802 ft 194 kts 50°
2026-05-06 08:16 -33.85907 151.59480 22166 ft 196 kts 55°
2026-05-06 08:16 -33.85231 151.60909 22535 ft 196 kts 52°
2026-05-06 08:16 -33.84530 151.62263 22887 ft 196 kts 51°
2026-05-06 08:17 -33.83819 151.63672 23254 ft 197 kts 53°
2026-05-06 08:17 -33.83120 151.65090 23614 ft 198 kts 52°
2026-05-06 08:17 -33.82403 151.66504 23916 ft 198 kts 52°
2026-05-06 08:17 -33.81687 151.67925 24209 ft 199 kts 52°
2026-05-06 08:18 -33.80975 151.69356 24484 ft 199 kts 51°
2026-05-06 08:18 -33.80263 151.70761 24745 ft 199 kts 51°
2026-05-06 08:18 -33.79501 151.72260 24637 ft 222 kts 52°
2026-05-06 08:18 -33.78648 151.73955 24004 ft 257 kts 56°
2026-05-06 08:19 -33.77934 151.76066 23084 ft 285 kts 69°
2026-05-06 08:19 -33.77339 151.78350 21683 ft 303 kts 69°
2026-05-06 08:19 -33.76639 151.80811 20006 ft 315 kts 68°
2026-05-06 08:19 -33.75940 151.83317 18997 ft 305 kts 70°
2026-05-06 08:20 -33.75342 151.85600 19123 ft 272 kts 70°
2026-05-06 08:20 -33.74765 151.87718 19066 ft 261 kts 69°
2026-05-06 08:20 -33.74197 151.89753 19073 ft 254 kts 69°
2026-05-06 08:20 -33.73654 151.91755 19069 ft 251 kts 69°
2026-05-06 08:21 -33.73115 151.93737 19079 ft 248 kts 69°
2026-05-06 08:21 -33.72573 151.95706 19076 ft 248 kts 69°
2026-05-06 08:21 -33.72038 151.97672 19076 ft 247 kts 69°
2026-05-06 08:21 -33.71502 151.99635 19077 ft 247 kts 69°
2026-05-06 08:22 -33.70975 152.01549 19077 ft 247 kts 69°
2026-05-06 08:22 -33.70442 152.03502 19077 ft 247 kts 69°
2026-05-06 08:22 -33.69903 152.05469 19076 ft 247 kts 69°
2026-05-06 08:22 -33.69370 152.07403 19074 ft 247 kts 69°
2026-05-06 08:23 -33.68834 152.09364 19078 ft 247 kts 69°
2026-05-06 08:23 -33.68297 152.11322 19079 ft 247 kts 69°
2026-05-06 08:23 -33.67756 152.13279 19075 ft 247 kts 69°
2026-05-06 08:23 -33.67220 152.15235 19075 ft 247 kts 69°
2026-05-06 08:24 -33.66682 152.17194 19077 ft 247 kts 69°
2026-05-06 08:24 -33.66140 152.19155 19076 ft 247 kts 69°
2026-05-06 08:24 -33.65613 152.21069 19075 ft 247 kts 69°
2026-05-06 08:24 -33.65075 152.23024 19076 ft 247 kts 69°
2026-05-06 08:25 -33.64532 152.24981 19077 ft 247 kts 69°
2026-05-06 08:25 -33.63993 152.26938 19077 ft 247 kts 69°
2026-05-06 08:25 -33.63454 152.28896 19076 ft 247 kts 69°
2026-05-06 08:25 -33.62911 152.30851 19080 ft 247 kts 69°
2026-05-06 08:26 -33.62376 152.32786 19081 ft 247 kts 69°
2026-05-06 08:26 -33.61836 152.34741 19079 ft 247 kts 69°
2026-05-06 08:26 -33.61291 152.36698 19079 ft 247 kts 69°
2026-05-06 08:26 -33.60750 152.38653 19078 ft 247 kts 69°
2026-05-06 08:27 -33.60223 152.40559 19076 ft 247 kts 69°
2026-05-06 08:27 -33.59677 152.42514 19080 ft 247 kts 68°
2026-05-06 08:27 -33.59133 152.44472 19080 ft 247 kts 69°
2026-05-06 08:27 -33.58591 152.46429 19081 ft 247 kts 69°
2026-05-06 08:28 -33.58046 152.48381 19083 ft 247 kts 68°
2026-05-06 08:28 -33.57509 152.50311 19074 ft 236 kts 69°
2026-05-06 08:28 -33.57029 152.52062 19050 ft 207 kts 68°
2026-05-06 08:28 -33.56592 152.53613 18952 ft 189 kts 67°
2026-05-06 08:29 -33.56172 152.55091 18741 ft 185 kts 68°
2026-05-06 08:29 -33.55781 152.56529 18614 ft 178 kts 68°
2026-05-06 08:29 -33.55407 152.57869 18475 ft 176 kts 67°
2026-05-06 08:29 -33.54990 152.59310 18711 ft 186 kts 67°
2026-05-06 08:30 -33.54582 152.60797 19080 ft 189 kts 68°
2026-05-06 08:30 -33.54165 152.62305 19145 ft 193 kts 68°
2026-05-06 08:30 -33.53733 152.63837 19049 ft 195 kts 67°
2026-05-06 08:30 -33.53279 152.65432 19075 ft 211 kts 68°
2026-05-06 08:31 -33.52794 152.67171 19079 ft 227 kts 68°
2026-05-06 08:31 -33.52285 152.69003 19076 ft 236 kts 68°
2026-05-06 08:31 -33.51758 152.70868 19064 ft 242 kts 68°
2026-05-06 08:31 -33.51221 152.72793 19057 ft 245 kts 68°
2026-05-06 08:32 -33.50678 152.74733 19055 ft 246 kts 68°
2026-05-06 08:32 -33.50132 152.76663 19055 ft 247 kts 68°
2026-05-06 08:32 -33.49586 152.78612 19050 ft 247 kts 68°
2026-05-06 08:32 -33.49036 152.80567 19052 ft 247 kts 68°
2026-05-06 08:33 -33.48485 152.82515 19052 ft 247 kts 68°
2026-05-06 08:33 -33.47935 152.84471 19049 ft 247 kts 68°
2026-05-06 08:33 -33.47385 152.86421 19050 ft 247 kts 68°
2026-05-06 08:33 -33.46834 152.88374 19049 ft 247 kts 68°
2026-05-06 08:34 -33.46290 152.90304 19052 ft 247 kts 68°
2026-05-06 08:34 -33.45185 152.94208 19052 ft 247 kts 68°
2026-05-06 08:34 -33.44634 152.96162 19046 ft 247 kts 68°
2026-05-06 08:35 -33.44093 152.98064 19050 ft 247 kts 68°
2026-05-06 08:35 -33.43540 153.00013 19048 ft 247 kts 68°
2026-05-06 08:35 -33.42991 153.01963 19047 ft 247 kts 68°
2026-05-06 08:35 -33.42434 153.03913 19050 ft 247 kts 68°
2026-05-06 08:36 -33.41880 153.05863 19048 ft 247 kts 68°
2026-05-06 08:36 -33.41328 153.07817 19049 ft 247 kts 68°
2026-05-06 08:36 -33.40771 153.09766 19051 ft 247 kts 68°
2026-05-06 08:36 -33.40216 153.11714 19046 ft 247 kts 68°
2026-05-06 08:37 -33.39664 153.13664 19050 ft 247 kts 68°
2026-05-06 08:37 -33.39108 153.15613 19047 ft 247 kts 68°
2026-05-06 08:37 -33.38551 153.17557 19048 ft 247 kts 68°
2026-05-06 08:37 -33.38005 153.19480 19046 ft 247 kts 68°
2026-05-06 08:38 -33.37463 153.21379 19046 ft 247 kts 68°
2026-05-06 08:38 -33.36904 153.23327 19047 ft 247 kts 68°
2026-05-06 08:38 -33.36349 153.25275 19047 ft 247 kts 68°
2026-05-06 08:38 -33.35793 153.27222 19046 ft 247 kts 68°
2026-05-06 08:39 -33.35233 153.29166 19047 ft 247 kts 68°
2026-05-06 08:39 -33.34677 153.31115 19044 ft 247 kts 68°
2026-05-06 08:39 -33.34122 153.33056 19046 ft 247 kts 68°
2026-05-06 08:39 -33.33562 153.34997 19045 ft 247 kts 68°
2026-05-06 08:40 -33.33006 153.36943 19047 ft 247 kts 68°
2026-05-06 08:40 -33.32448 153.38886 19047 ft 247 kts 68°
2026-05-06 08:40 -33.31901 153.40781 19047 ft 247 kts 68°
2026-05-06 08:40 -33.31344 153.42724 19049 ft 247 kts 68°
2026-05-06 08:41 -33.30786 153.44667 19045 ft 247 kts 68°
2026-05-06 08:41 -33.30224 153.46609 19047 ft 247 kts 68°
2026-05-06 08:41 -33.29665 153.48553 19044 ft 247 kts 68°
2026-05-06 08:41 -33.29114 153.50468 19046 ft 247 kts 68°
2026-05-06 08:42 -33.28550 153.52412 19045 ft 247 kts 68°
2026-05-06 08:42 -33.27991 153.54355 19046 ft 247 kts 68°
2026-05-06 08:42 -33.27429 153.56300 19047 ft 247 kts 68°
2026-05-06 08:42 -33.26867 153.58236 19047 ft 247 kts 68°
2026-05-06 08:43 -33.26307 153.60179 19046 ft 247 kts 68°
2026-05-06 08:43 -33.25746 153.62120 19046 ft 247 kts 68°
2026-05-06 08:43 -33.25199 153.63995 19046 ft 247 kts 68°
2026-05-06 08:43 -33.24640 153.65935 19045 ft 247 kts 68°
2026-05-06 08:44 -33.24293 153.67137 19047 ft 247 kts 68°
2026-05-06 08:44 -33.23727 153.69075 19044 ft 247 kts 68°
2026-05-06 08:44 -33.23163 153.71015 19048 ft 247 kts 68°
2026-05-06 08:44 -33.22602 153.72958 19047 ft 247 kts 68°
2026-05-06 08:45 -33.21852 153.75526 19045 ft 247 kts 68°
2026-05-06 08:45 -33.21471 153.76834 19042 ft 247 kts 68°
2026-05-06 08:45 -33.20908 153.78779 19046 ft 247 kts 68°
2026-05-06 08:45 -33.20348 153.80693 19047 ft 247 kts 67°
2026-05-06 08:46 -33.19781 153.82632 19046 ft 247 kts 68°
2026-05-06 08:46 -33.19217 153.84577 19044 ft 247 kts 67°
2026-05-06 08:46 -33.18656 153.86493 19044 ft 247 kts 67°
2026-05-06 08:46 -33.18088 153.88432 19044 ft 247 kts 67°
2026-05-06 08:47 -33.17523 153.90376 19042 ft 248 kts 67°
2026-05-06 08:47 -33.16953 153.92321 19041 ft 247 kts 67°
2026-05-06 08:47 -33.16383 153.94260 19040 ft 247 kts 67°
2026-05-06 08:47 -33.15824 153.96178 19039 ft 248 kts 67°
2026-05-06 08:48 -33.15255 153.98117 19041 ft 248 kts 67°
2026-05-06 08:48 -33.14682 154.00064 19041 ft 248 kts 67°
2026-05-06 08:48 -33.14115 154.02007 19042 ft 248 kts 67°
2026-05-06 08:48 -33.13545 154.03944 19043 ft 248 kts 67°
2026-05-06 08:49 -33.12986 154.05838 19040 ft 248 kts 67°
2026-05-06 08:49 -33.12418 154.07779 19042 ft 248 kts 67°
2026-05-06 08:49 -33.11855 154.09693 19040 ft 248 kts 67°
2026-05-06 08:49 -33.11281 154.11631 19040 ft 248 kts 67°
2026-05-06 08:50 -33.10712 154.13571 19035 ft 248 kts 67°
2026-05-06 08:50 -33.10139 154.15515 19037 ft 248 kts 67°
2026-05-06 08:50 -33.09565 154.17454 19038 ft 248 kts 67°
2026-05-06 08:50 -33.08995 154.19393 19040 ft 248 kts 67°
2026-05-06 08:51 -33.08421 154.21335 19041 ft 248 kts 66°
2026-05-06 08:51 -33.07845 154.23274 19043 ft 248 kts 66°
2026-05-06 08:51 -33.07279 154.25197 19042 ft 248 kts 66°
2026-05-06 08:51 -33.06703 154.27139 19040 ft 248 kts 66°
2026-05-06 08:52 -33.06126 154.29084 19038 ft 249 kts 66°
2026-05-06 08:52 -33.05552 154.31029 19039 ft 249 kts 66°
2026-05-06 08:52 -33.04974 154.32972 19038 ft 249 kts 66°
2026-05-06 08:52 -33.04396 154.34916 19039 ft 249 kts 66°
2026-05-06 08:53 -33.03821 154.36861 19040 ft 249 kts 66°
2026-05-06 08:53 -33.03243 154.38803 19039 ft 249 kts 66°
2026-05-06 08:53 -33.02663 154.40749 19039 ft 249 kts 66°
2026-05-06 08:53 -33.02086 154.42696 19039 ft 249 kts 66°
2026-05-06 08:54 -33.01506 154.44639 19041 ft 249 kts 66°
2026-05-06 08:54 -33.00932 154.46563 19039 ft 249 kts 66°
2026-05-06 08:54 -33.00360 154.48490 19038 ft 249 kts 66°
2026-05-06 08:54 -32.99778 154.50437 19039 ft 249 kts 66°
2026-05-06 08:55 -32.99195 154.52382 19038 ft 249 kts 66°
2026-05-06 08:55 -32.98617 154.54329 19039 ft 249 kts 66°
2026-05-06 08:55 -32.98033 154.56279 19041 ft 249 kts 66°
2026-05-06 08:55 -32.97447 154.58231 19040 ft 250 kts 66°
2026-05-06 08:56 -32.96867 154.60181 19043 ft 250 kts 66°
2026-05-06 08:56 -32.96283 154.62127 19043 ft 250 kts 66°
2026-05-06 08:56 -32.95704 154.64052 19047 ft 250 kts 66°
2026-05-06 08:56 -32.95122 154.66003 19041 ft 250 kts 66°
2026-05-06 08:57 -32.94535 154.67954 19039 ft 250 kts 66°
2026-05-06 08:57 -32.93948 154.69905 19038 ft 250 kts 66°
2026-05-06 08:57 -32.93378 154.71811 19041 ft 250 kts 66°
2026-05-06 08:57 -32.92790 154.73761 19045 ft 250 kts 65°
2026-05-06 08:58 -32.92203 154.75708 19044 ft 250 kts 66°
2026-05-06 08:58 -32.91624 154.77641 19045 ft 250 kts 66°
2026-05-06 08:58 -32.91036 154.79589 19043 ft 250 kts 65°
2026-05-06 08:58 -32.90444 154.81547 19041 ft 250 kts 65°
2026-05-06 08:59 -32.89858 154.83500 19049 ft 250 kts 65°
2026-05-06 08:59 -32.89267 154.85453 19044 ft 250 kts 65°
2026-05-06 08:59 -32.88678 154.87400 19041 ft 251 kts 65°
2026-05-06 08:59 -32.88090 154.89355 19042 ft 251 kts 65°
2026-05-06 09:00 -32.87512 154.91260 19050 ft 251 kts 65°
2026-05-06 09:00 -32.86926 154.93189 19046 ft 251 kts 65°
2026-05-06 09:00 -32.86338 154.95142 19046 ft 251 kts 65°
2026-05-06 09:00 -32.85745 154.97097 19041 ft 251 kts 65°
2026-05-06 09:01 -32.85152 154.99045 19049 ft 251 kts 65°
2026-05-06 09:01 -32.84563 155.00996 19050 ft 251 kts 65°
2026-05-06 09:01 -32.83970 155.02947 19050 ft 251 kts 65°
2026-05-06 09:01 -32.83375 155.04898 19051 ft 251 kts 65°
2026-05-06 09:02 -32.82781 155.06862 19051 ft 251 kts 65°
2026-05-06 09:02 -32.82188 155.08813 19050 ft 251 kts 65°
2026-05-06 09:02 -32.81592 155.10760 19054 ft 251 kts 65°
2026-05-06 09:02 -32.81013 155.12669 19049 ft 251 kts 65°
2026-05-06 09:03 -32.80427 155.14596 19050 ft 251 kts 65°
2026-05-06 09:03 -32.79829 155.16547 19049 ft 251 kts 65°
2026-05-06 09:03 -32.79234 155.18502 19048 ft 251 kts 65°
2026-05-06 09:03 -32.78638 155.20460 19047 ft 251 kts 65°
2026-05-06 09:04 -32.78040 155.22408 19049 ft 251 kts 65°
2026-05-06 09:04 -32.77443 155.24362 19046 ft 251 kts 65°
2026-05-06 09:04 -32.76848 155.26312 19044 ft 251 kts 65°
2026-05-06 09:04 -32.76249 155.28260 19044 ft 251 kts 65°
2026-05-06 09:05 -32.75653 155.30212 19043 ft 251 kts 65°
2026-05-06 09:05 -32.75078 155.32090 19045 ft 251 kts 64°
2026-05-06 09:05 -32.74478 155.34039 19044 ft 251 kts 65°
2026-05-06 09:05 -32.73881 155.35989 19045 ft 251 kts 65°
2026-05-06 09:06 -32.73282 155.37944 19046 ft 251 kts 64°
2026-05-06 09:06 -32.72680 155.39894 19044 ft 251 kts 65°
2026-05-06 09:06 -32.72083 155.41841 19043 ft 251 kts 65°
2026-05-06 09:06 -32.71484 155.43787 19043 ft 251 kts 64°
2026-05-06 09:07 -32.70881 155.45742 19047 ft 251 kts 65°
2026-05-06 09:07 -32.70283 155.47692 19043 ft 251 kts 65°
2026-05-06 09:07 -32.69680 155.49641 19048 ft 251 kts 64°
2026-05-06 09:07 -32.69079 155.51589 19047 ft 251 kts 64°
2026-05-06 09:08 -32.68495 155.53486 19046 ft 251 kts 64°
2026-05-06 09:08 -32.67892 155.55436 19045 ft 251 kts 64°
2026-05-06 09:08 -32.67290 155.57382 19042 ft 251 kts 64°
2026-05-06 09:08 -32.66688 155.59334 19046 ft 251 kts 64°
2026-05-06 09:09 -32.66084 155.61280 19047 ft 251 kts 64°
2026-05-06 09:09 -32.65481 155.63228 19046 ft 251 kts 64°
2026-05-06 09:09 -32.64878 155.65177 19049 ft 251 kts 64°
2026-05-06 09:09 -32.64274 155.67122 19045 ft 251 kts 64°
2026-05-06 09:10 -32.63675 155.69050 19045 ft 252 kts 64°
2026-05-06 09:10 -32.63073 155.70996 19045 ft 251 kts 64°
2026-05-06 09:10 -32.62474 155.72924 19045 ft 251 kts 64°
2026-05-06 09:10 -32.61868 155.74867 19046 ft 251 kts 64°
2026-05-06 09:11 -32.61265 155.76814 19049 ft 251 kts 64°
2026-05-06 09:11 -32.60659 155.78759 19048 ft 251 kts 64°
2026-05-06 09:11 -32.60053 155.80700 19047 ft 251 kts 64°
2026-05-06 09:11 -32.59449 155.82646 19043 ft 251 kts 64°
2026-05-06 09:12 -32.58843 155.84586 19046 ft 251 kts 64°
2026-05-06 09:12 -32.58235 155.86528 19047 ft 251 kts 64°
2026-05-06 09:12 -32.57632 155.88469 19049 ft 251 kts 64°
2026-05-06 09:12 -32.57026 155.90409 19049 ft 251 kts 64°
2026-05-06 09:13 -32.56417 155.92350 19048 ft 251 kts 64°
2026-05-06 09:13 -32.55827 155.94247 19049 ft 251 kts 64°
2026-05-06 09:13 -32.55227 155.96160 19047 ft 251 kts 64°
2026-05-06 09:13 -32.54619 155.98096 19042 ft 251 kts 64°
2026-05-06 09:14 -32.54013 156.00035 19047 ft 251 kts 64°
2026-05-06 09:14 -32.53406 156.01972 19046 ft 251 kts 64°
2026-05-06 09:14 -32.52797 156.03907 19043 ft 251 kts 64°
2026-05-06 09:14 -32.52191 156.05842 19048 ft 251 kts 64°
2026-05-06 09:15 -32.51583 156.07778 19050 ft 250 kts 64°
2026-05-06 09:15 -32.50973 156.09714 19049 ft 250 kts 64°
2026-05-06 09:15 -32.50366 156.11649 19047 ft 250 kts 64°
2026-05-06 09:15 -32.49772 156.13537 19050 ft 250 kts 64°
2026-05-06 09:16 -32.49174 156.15430 19048 ft 250 kts 64°
2026-05-06 09:16 -32.48567 156.17362 19050 ft 250 kts 64°
2026-05-06 09:16 -32.47959 156.19291 19048 ft 250 kts 63°
2026-05-06 09:16 -32.47347 156.21222 19049 ft 250 kts 64°
2026-05-06 09:17 -32.46748 156.23129 19049 ft 250 kts 63°
2026-05-06 09:17 -32.46138 156.25056 19047 ft 250 kts 63°
2026-05-06 09:17 -32.45526 156.26987 19048 ft 250 kts 63°
2026-05-06 09:17 -32.44919 156.28914 19048 ft 250 kts 63°
2026-05-06 09:18 -32.44310 156.30838 19049 ft 250 kts 63°
2026-05-06 09:18 -32.43714 156.32712 19045 ft 250 kts 63°
2026-05-06 09:18 -32.43106 156.34639 19042 ft 250 kts 63°
2026-05-06 09:18 -32.42494 156.36565 19046 ft 250 kts 63°
2026-05-06 09:19 -32.41884 156.38488 19053 ft 250 kts 63°
2026-05-06 09:19 -32.41283 156.40388 19054 ft 249 kts 63°
2026-05-06 09:19 -32.40663 156.42333 19049 ft 249 kts 63°
2026-05-06 09:19 -32.40052 156.44256 19044 ft 250 kts 63°
2026-05-06 09:20 -32.39443 156.46179 19046 ft 250 kts 63°
2026-05-06 09:20 -32.38830 156.48099 19045 ft 249 kts 63°
2026-05-06 09:20 -32.38225 156.49995 19043 ft 250 kts 63°
2026-05-06 09:20 -32.37629 156.51874 19045 ft 250 kts 63°
2026-05-06 09:21 -32.37017 156.53792 19047 ft 250 kts 63°
2026-05-06 09:21 -32.36402 156.55714 19048 ft 250 kts 63°
2026-05-06 09:21 -32.35790 156.57640 19043 ft 250 kts 63°
2026-05-06 09:21 -32.35175 156.59561 19044 ft 250 kts 63°
2026-05-06 09:22 -32.34559 156.61481 19047 ft 250 kts 63°
2026-05-06 09:22 -32.33947 156.63407 19039 ft 250 kts 63°
2026-05-06 09:22 -32.33331 156.65326 19046 ft 250 kts 63°
2026-05-06 09:22 -32.32715 156.67248 19047 ft 250 kts 63°
2026-05-06 09:23 -32.32101 156.69171 19044 ft 250 kts 63°
2026-05-06 09:23 -32.31485 156.71090 19045 ft 250 kts 63°
2026-05-06 09:23 -32.30894 156.72929 19042 ft 250 kts 63°
2026-05-06 09:23 -32.30276 156.74861 19040 ft 250 kts 63°
2026-05-06 09:24 -32.29658 156.76780 19046 ft 250 kts 63°
2026-05-06 09:24 -32.29044 156.78686 19045 ft 250 kts 63°
2026-05-06 09:24 -32.28431 156.80606 19041 ft 250 kts 63°
2026-05-06 09:24 -32.27809 156.82532 19041 ft 250 kts 62°
2026-05-06 09:25 -32.27190 156.84452 19041 ft 250 kts 63°
2026-05-06 09:25 -32.26570 156.86384 19042 ft 250 kts 63°
2026-05-06 09:25 -32.25949 156.88305 19044 ft 250 kts 62°
2026-05-06 09:25 -32.25340 156.90193 19046 ft 250 kts 63°
2026-05-06 09:26 -32.24720 156.92122 19046 ft 250 kts 62°
2026-05-06 09:26 -32.24105 156.94017 19048 ft 250 kts 62°
2026-05-06 09:26 -32.23484 156.95943 19047 ft 250 kts 62°
2026-05-06 09:26 -32.22865 156.97863 19042 ft 250 kts 62°
2026-05-06 09:27 -32.22241 156.99783 19042 ft 250 kts 62°
2026-05-06 09:27 -32.21620 157.01705 19041 ft 251 kts 62°
2026-05-06 09:27 -32.21000 157.03626 19040 ft 251 kts 62°
2026-05-06 09:27 -32.20374 157.05551 19045 ft 251 kts 62°
2026-05-06 09:28 -32.19751 157.07473 19044 ft 251 kts 62°
2026-05-06 09:28 -32.19129 157.09395 19045 ft 251 kts 62°
2026-05-06 09:28 -32.18504 157.11316 19046 ft 251 kts 62°
2026-05-06 09:28 -32.17898 157.13183 19039 ft 251 kts 62°
2026-05-06 09:29 -32.17273 157.15107 19041 ft 251 kts 62°
2026-05-06 09:29 -32.16646 157.17031 19041 ft 251 kts 62°
2026-05-06 09:29 -32.16029 157.18929 19040 ft 251 kts 62°
2026-05-06 09:29 -32.15405 157.20851 19044 ft 251 kts 62°
2026-05-06 09:30 -32.14774 157.22778 19046 ft 251 kts 62°
2026-05-06 09:30 -32.14150 157.24699 19044 ft 251 kts 62°
2026-05-06 09:30 -32.13523 157.26620 19041 ft 251 kts 62°
2026-05-06 09:30 -32.12895 157.28540 19044 ft 251 kts 62°
2026-05-06 09:31 -32.12268 157.30465 19045 ft 251 kts 62°
2026-05-06 09:31 -32.11640 157.32385 19047 ft 251 kts 62°
2026-05-06 09:31 -32.11027 157.34255 19042 ft 251 kts 62°
2026-05-06 09:31 -32.10399 157.36179 19042 ft 251 kts 62°
2026-05-06 09:32 -32.09772 157.38095 19043 ft 251 kts 61°
2026-05-06 09:32 -32.09141 157.40017 19039 ft 251 kts 61°
2026-05-06 09:32 -32.08511 157.41942 19042 ft 251 kts 61°
2026-05-06 09:32 -32.08095 157.43210 19042 ft 251 kts 61°
2026-05-06 09:33 -32.07257 157.45765 19038 ft 251 kts 61°
2026-05-06 09:33 -32.06629 157.47678 19041 ft 251 kts 61°
2026-05-06 09:33 -32.06201 157.48976 19040 ft 251 kts 61°
2026-05-06 09:33 -32.05366 157.51518 19040 ft 251 kts 62°
2026-05-06 09:34 -32.04739 157.53435 19043 ft 251 kts 61°
2026-05-06 09:34 -32.04119 157.55309 19041 ft 251 kts 61°
2026-05-06 09:34 -32.03700 157.56578 19042 ft 251 kts 61°
2026-05-06 09:34 -32.03069 157.58504 19046 ft 251 kts 61°
2026-05-06 09:35 -32.02436 157.60419 19041 ft 251 kts 61°
2026-05-06 09:35 -32.01803 157.62335 19038 ft 251 kts 61°
2026-05-06 09:35 -32.00958 157.64902 19039 ft 251 kts 61°
2026-05-06 09:35 -32.00537 157.66172 19038 ft 251 kts 61°
2026-05-06 09:36 -31.99902 157.68089 19043 ft 251 kts 61°
2026-05-06 09:36 -31.99270 157.70009 19040 ft 251 kts 61°
2026-05-06 09:36 -31.98632 157.71933 18593 ft 243 kts 61°
2026-05-06 09:36 -31.98073 157.73658 17854 ft 222 kts 61°
2026-05-06 09:37 -31.97522 157.75314 17054 ft 212 kts 60°
2026-05-06 09:37 -31.96984 157.76907 16282 ft 206 kts 60°
2026-05-06 09:37 -31.96471 157.78467 15544 ft 202 kts 60°
2026-05-06 09:37 -31.95971 157.79974 14847 ft 198 kts 60°
2026-05-06 09:38 -31.95470 157.81473 14175 ft 195 kts 60°
2026-05-06 09:38 -31.94983 157.82949 13463 ft 192 kts 61°
2026-05-06 09:38 -31.94496 157.84408 12745 ft 190 kts 62°
2026-05-06 09:38 -31.94016 157.85847 12055 ft 188 kts 63°
2026-05-06 09:39 -31.93546 157.87272 11380 ft 185 kts 63°
2026-05-06 09:39 -31.93089 157.88639 10750 ft 183 kts 64°
2026-05-06 09:39 -31.92627 157.90021 10120 ft 181 kts 65°
2026-05-06 09:39 -31.92170 157.91407 9442 ft 179 kts 65°
2026-05-06 09:40 -31.91716 157.92768 8783 ft 177 kts 65°
2026-05-06 09:40 -31.91272 157.94110 8141 ft 175 kts 66°
2026-05-06 09:40 -31.90390 157.96746 6908 ft 171 kts 66°
2026-05-06 09:41 -31.89961 157.98038 6302 ft 169 kts 66°
2026-05-06 09:41 -31.89536 157.99313 5679 ft 167 kts 66°
2026-05-06 09:41 -31.89109 158.00573 5079 ft 165 kts 66°
2026-05-06 09:41 -31.88702 158.01789 4487 ft 163 kts 67°
2026-05-06 09:42 -31.88306 158.02986 4190 ft 145 kts 68°
2026-05-06 09:42 -31.87958 158.04023 4116 ft 143 kts 68°
2026-05-06 09:42 -31.87573 158.05180 4313 ft 159 kts 68°
2026-05-06 09:42 -31.87159 158.06425 4498 ft 168 kts 67°
2026-05-06 09:43 -31.86697 158.07788 4554 ft 189 kts 67°
2026-05-06 09:43 -31.86210 158.09252 4550 ft 199 kts 68°
2026-05-06 09:43 -31.85700 158.10785 4536 ft 203 kts 67°
2026-05-06 09:43 -31.85178 158.12331 4531 ft 204 kts 67°
2026-05-06 09:44 -31.84660 158.13885 4531 ft 204 kts 68°
2026-05-06 09:44 -31.84139 158.15436 4523 ft 204 kts 67°
2026-05-06 09:44 -31.83629 158.16951 4532 ft 204 kts 68°
2026-05-06 09:44 -31.83108 158.18508 4525 ft 204 kts 67°
2026-05-06 09:45 -31.82585 158.20063 4531 ft 204 kts 68°
2026-05-06 09:45 -31.82070 158.21596 4531 ft 204 kts 68°
2026-05-06 09:45 -31.81550 158.23151 4529 ft 204 kts 67°
2026-05-06 09:45 -31.81025 158.24704 4528 ft 204 kts 67°
2026-05-06 09:46 -31.80504 158.26253 4527 ft 204 kts 68°
2026-05-06 09:46 -31.79983 158.27806 4524 ft 204 kts 67°
2026-05-06 09:46 -31.79460 158.29356 4520 ft 204 kts 67°
2026-05-06 09:46 -31.78936 158.30909 4525 ft 204 kts 67°
2026-05-06 09:47 -31.78415 158.32459 4525 ft 204 kts 68°
2026-05-06 09:47 -31.77899 158.33990 4526 ft 204 kts 68°
2026-05-06 09:47 -31.77373 158.35546 4529 ft 204 kts 68°
2026-05-06 09:47 -31.76850 158.37101 4526 ft 204 kts 67°
2026-05-06 09:48 -31.76325 158.38649 4527 ft 204 kts 67°
2026-05-06 09:48 -31.75811 158.40175 4524 ft 204 kts 68°
2026-05-06 09:48 -31.75280 158.41744 4521 ft 204 kts 67°
2026-05-06 09:48 -31.74758 158.43271 4496 ft 205 kts 67°
2026-05-06 09:49 -31.74214 158.44824 4454 ft 206 kts 66°
2026-05-06 09:49 -31.73656 158.46368 4451 ft 205 kts 65°
2026-05-06 09:49 -31.73079 158.47899 4455 ft 204 kts 64°
2026-05-06 09:49 -31.72483 158.49405 4427 ft 205 kts 63°
2026-05-06 09:50 -31.71868 158.50879 4405 ft 205 kts 62°
2026-05-06 09:50 -31.71219 158.52362 4396 ft 204 kts 61°
2026-05-06 09:50 -31.70544 158.53831 4350 ft 205 kts 60°
2026-05-06 09:50 -31.69844 158.55287 4322 ft 205 kts 59°
2026-05-06 09:51 -31.69121 158.56726 4304 ft 204 kts 57°
2026-05-06 09:51 -31.68376 158.58147 4291 ft 204 kts 56°
2026-05-06 09:51 -31.67606 158.59545 4295 ft 203 kts 55°
2026-05-06 09:51 -31.67339 158.60011 4291 ft 203 kts 54°
2026-05-06 09:52 -31.67210 158.60233 4290 ft 203 kts 54°
2026-05-06 09:52 -31.66458 158.61494 4272 ft 204 kts 53°
2026-05-06 09:53 -31.65618 158.62823 4258 ft 202 kts 51°
2026-05-06 09:53 -31.64761 158.64112 4235 ft 203 kts 50°
2026-05-06 09:53 -31.63866 158.65387 4229 ft 202 kts 48°
2026-05-06 09:53 -31.62948 158.66630 4229 ft 202 kts 47°
2026-05-06 09:54 -31.62001 158.67847 4220 ft 202 kts 45°
2026-05-06 09:54 -31.61027 158.69025 4215 ft 201 kts 43°
2026-05-06 09:54 -31.60021 158.70169 4180 ft 202 kts 41°
2026-05-06 09:54 -31.58991 158.71279 4179 ft 201 kts 40°
2026-05-06 09:55 -31.57930 158.72350 4173 ft 201 kts 38°
2026-05-06 09:55 -31.56843 158.73372 4202 ft 199 kts 36°
2026-05-06 09:55 -31.55763 158.74330 4212 ft 200 kts 34°
2026-05-06 09:55 -31.54678 158.75233 4080 ft 173 kts 32°
2026-05-06 09:56 -31.53685 158.76001 2827 ft 178 kts 32°
2026-05-06 09:56 -31.52600 158.76837 1411 ft 186 kts 46°
2026-05-06 09:56 -31.51934 158.77968 827 ft 160 kts 60°
2026-05-06 09:56 -31.51334 158.79072 534 ft 163 kts 60°
2026-05-06 09:57 -31.50797 158.80107 1239 ft 146 kts 63°
2026-05-06 09:57 -31.50169 158.81186 1075 ft 148 kts 62°
2026-05-06 09:57 -31.49775 158.82162 599 ft 142 kts 73°
2026-05-06 09:57 -31.49519 158.83305 641 ft 140 kts 86°
2026-05-06 09:58 -31.49427 158.84432 655 ft 148 kts 90°
2026-05-06 09:58 -31.49369 158.85687 649 ft 144 kts 90°
2026-05-06 09:58 -31.49313 158.86691 467 ft 121 kts 87°
2026-05-06 09:58 -31.49169 158.87768 619 ft 141 kts 83°
2026-05-06 09:59 -31.48969 158.88941 806 ft 148 kts 81°
2026-05-06 09:59 -31.48773 158.90129 964 ft 155 kts 81°
2026-05-06 09:59 -31.48533 158.91274 1077 ft 124 kts 83°
2026-05-06 09:59 -31.48430 158.92334 753 ft 148 kts 88°
2026-05-06 10:00 -31.48342 158.93582 776 ft 159 kts 92°
2026-05-06 10:00 -31.48396 158.94877 790 ft 160 kts 98°
2026-05-06 10:00 -31.48557 158.96116 784 ft 126 kts 106°
2026-05-06 10:00 -31.48750 158.97007 514 ft 124 kts 109°
2026-05-06 10:01 -31.49077 158.97966 443 ft 126 kts 115°
2026-05-06 10:01 -31.49483 158.98897 282 ft 129 kts 117°
2026-05-06 10:01 -31.49902 158.99779 295 ft 122 kts 121°
2026-05-06 10:01 -31.50255 159.00680 252 ft 124 kts 102°
2026-05-06 10:02 -31.50398 159.01654 305 ft 121 kts 101°
2026-05-06 10:02 -31.50542 159.02639 331 ft 124 kts 102°
2026-05-06 10:02 -31.50791 159.03595 325 ft 123 kts 116°
2026-05-06 10:02 -31.51279 159.04272 170 ft 113 kts 148°
2026-05-06 10:03 -31.52018 159.04446 412 ft 113 kts 194°
2026-05-06 10:03 -31.52427 159.03674 350 ft 131 kts 270°
2026-05-06 10:03 -31.51908 159.02887 404 ft 129 kts 341°
2026-05-06 10:03 -31.51635 159.02043 293 ft 130 kts 228°
2026-05-06 10:04 -31.52344 159.02156 268 ft 120 kts 122°
2026-05-06 10:04 -31.52566 159.03094 220 ft 123 kts 95°
2026-05-06 10:04 -31.52672 159.04079 217 ft 120 kts 102°
2026-05-06 10:04 -31.52849 159.04960 266 ft 111 kts 107°
2026-05-06 10:05 -31.53112 159.05827 238 ft 115 kts 114°
2026-05-06 10:05 -31.53475 159.06685 137 ft 117 kts 117°
2026-05-06 10:05 -31.53775 159.07438 24 ft 81 kts 115°
2026-05-06 10:05 -31.53868 159.07670 27 ft 19 kts 113°
2026-05-06 10:06 -31.53921 159.07814 24 ft 14 kts 114°
2026-05-06 10:06 -31.53952 159.07864 26 ft 5 kts 171°
2026-05-06 10:06 -31.53995 159.07849 28 ft 0 kts 207°
2026-05-06 10:07 -31.54002 159.07845 28 ft 0 kts 207°
2026-05-06 10:07 -31.54006 159.07842 28 ft 4 kts 219°
2026-05-06 10:08 -31.54022 159.07817 28 ft 0 kts 185°
2026-05-06 10:08 -31.54027 159.07820 28 ft 0 kts 129°
2026-05-06 10:08 -31.54028 159.07821 28 ft 0 kts 128°
2026-05-06 10:24 -31.54028 159.07820 28 ft 0 kts 128°